GFSCGP_850_dewp_195.txt.gz
Dewpoint
-1 0 0 -2 -3 -2 -1 0 2 1 -0 11 12 13 12 13 13 12 11 10 13 14 12 12 12 13 13 13 13 13 14 14 15 15 15 15 14 14 13 12 10 11 14 13
1 1 -2 -3 -3 -2 -2 -1 0 -1 -0 11 11 12 10 14 13 13 12 11 11 12 13 13 12 12 12 13 13 13 13 13 15 15 14 14 14 13 12 11 9 11 14 14
1 -0 -4 -3 -2 -1 -2 -1 -1 -1 -2 10 6 5 6 13 14 13 13 12 12 12 12 13 12 12 12 13 13 13 12 13 14 15 14 14 14 14 13 12 13 12 13 14
-5 -6 -5 -5 -4 -4 -2 -5 -3 -0 -1 -1 1 6 3 9 15 13 13 13 13 11 11 12 12 12 12 12 13 13 12 13 13 13 14 14 13 13 13 12 10 11 11 13
-3 -3 -3 -2 -3 -6 -4 -6 -4 -3 -2 -2 -1 1 1 12 12 14 13 11 12 13 11 11 12 12 12 12 13 12 12 13 13 13 14 14 14 13 13 12 12 12 9 6
-3 -4 -4 -4 -4 -6 -6 -8 -7 -3 -3 -1 -3 -2 -1 5 9 11 12 12 10 12 12 11 11 12 12 12 13 12 12 13 12 12 13 14 13 14 13 10 11 12 10 10
-0 -0 -2 -3 -2 -3 -9 -7 -3 -4 -2 -0 -0 3 0 -1 4 8 8 12 10 10 9 11 11 11 12 12 12 12 12 13 12 11 13 14 13 13 10 10 9 10 9 9
2 3 -2 -3 -2 -2 -6 -7 -5 -4 -1 -1 0 -0 -2 -2 -1 1 5 8 9 10 10 10 12 11 11 11 12 12 12 13 13 10 10 12 13 13 10 10 9 11 12 10
2 2 -2 -4 -5 -5 -5 -6 -8 -5 -3 -2 -2 -3 -3 -1 3 5 6 7 7 8 9 10 12 12 11 11 11 11 12 12 13 11 9 10 11 12 11 10 12 13 13 13
0 2 -1 -1 -5 -7 -6 -8 -4 -4 -2 -1 0 0 1 2 1 1 5 7 7 6 7 10 12 12 12 11 11 12 12 11 12 13 9 9 10 11 11 12 13 14 14 13
-1 0 1 -2 -2 -1 -4 -6 -5 -5 -2 -1 -0 -0 -1 2 2 3 1 3 6 6 6 8 9 11 12 12 11 11 12 12 13 13 12 9 9 11 12 13 13 14 14 13
2 -1 1 1 -2 -2 -5 -3 -6 -3 -2 -1 -1 1 -1 2 2 2 3 6 4 4 6 7 8 11 11 12 11 11 11 12 12 13 13 11 8 9 11 12 12 13 14 13
4 4 4 2 1 -0 1 1 1 -1 2 3 4 4 -2 1 1 2 2 2 6 3 6 7 9 10 11 11 12 11 11 11 12 13 13 12 9 8 9 10 10 13 14 14
4 3 2 4 3 3 4 5 3 2 5 4 4 4 2 2 2 3 2 1 6 6 7 9 9 9 11 11 11 11 11 11 11 12 13 13 11 8 7 8 8 9 11 13
-1 1 6 4 4 6 6 6 5 4 2 4 3 4 3 2 2 4 4 3 5 8 7 9 10 10 11 11 12 12 11 11 11 12 13 13 11 9 8 8 8 8 9 10
-2 -1 -0 0 2 4 1 1 5 3 3 3 4 5 4 5 7 4 4 5 6 6 8 8 10 10 11 11 11 11 11 11 11 12 12 12 12 10 9 9 9 9 10 10
-1 -0 1 1 2 0 -3 4 2 2 3 4 6 5 6 7 7 7 5 5 6 7 8 8 9 9 11 11 11 11 11 11 12 12 13 12 13 12 12 11 12 13 12 13
-1 -0 -0 1 0 3 -3 1 1 6 10 11 11 11 11 10 9 8 9 8 8 8 8 7 6 4 8 12 12 12 13 12 12 12 12 12 13 13 13 14 13 15 14 13
-3 -2 -0 1 2 -1 1 5 5 5 7 10 12 11 11 10 11 10 12 12 11 10 11 10 8 9 6 7 12 12 13 13 13 13 13 12 13 14 14 14 14 14 15 14
0 -1 0 2 2 3 6 5 4 4 7 10 11 11 10 10 13 12 12 12 13 10 9 11 12 15 15 14 15 14 13 14 13 12 12 12 13 14 14 15 15 15 16 16
3 3 5 6 6 6 6 6 5 8 8 10 11 10 10 10 10 9 9 10 12 11 10 9 9 12 14 15 15 15 15 14 12 12 13 13 14 14 15 15 16 16 16 16
3 5 6 6 7 7 6 6 8 7 7 7 8 9 9 8 9 9 9 9 11 9 10 10 10 8 9 13 15 15 16 16 14 13 14 14 14 15 15 16 15 15 15 14
5 4 6 5 6 4 6 6 6 5 4 4 4 4 6 8 7 5 6 6 8 8 8 8 10 9 10 8 10 12 16 16 15 14 14 15 15 16 16 16 15 14 14 15
4 3 5 4 3 5 5 4 5 5 6 5 5 4 3 5 6 6 5 3 4 6 7 8 9 9 8 10 10 8 11 12 16 16 15 16 16 16 17 17 16 16 15 16
3 3 4 4 3 5 4 5 5 5 5 5 5 5 4 4 4 4 5 4 4 4 5 6 8 7 9 10 8 10 8 8 9 16 16 16 16 16 17 16 13 14 14 14
4 4 6 6 4 6 6 6 6 6 6 6 6 5 5 5 4 4 4 4 5 5 5 4 4 7 7 10 10 9 9 9 8 12 15 14 14 16 16 11 9 11 12 13

GFSCGP_850_dewp_198.txt.gz
Dewpoint
-2 -1 -1 -2 -3 -3 -2 -1 1 -0 -0 4 7 11 10 14 13 14 14 14 14 14 13 13 12 12 12 13 14 14 14 14 14 14 15 14 13 13 12 12 12 13 14 13
-0 2 -1 -3 -3 -2 -2 -1 -0 -1 -1 4 8 11 10 13 13 13 13 13 13 13 13 13 13 12 12 12 13 13 13 14 14 15 15 14 14 14 14 11 11 14 12 13
-1 -1 -3 -3 -3 -2 -2 -1 -1 -1 -2 7 7 9 6 8 13 13 13 12 12 11 12 13 13 13 12 12 12 13 13 14 14 14 15 15 15 14 14 13 12 11 11 13
-3 -4 -5 -4 -4 -4 -2 -3 -3 -1 -1 -1 5 7 2 1 7 14 14 13 12 11 11 11 12 13 12 12 12 13 13 13 14 14 15 15 14 14 13 12 12 10 10 13
-4 -4 -3 -3 -3 -5 -3 -5 -5 -3 -1 -2 -3 -1 -1 7 5 7 13 13 13 12 11 11 11 11 12 12 11 12 13 13 13 14 14 14 14 14 13 13 11 12 13 12
-4 -4 -3 -3 -3 -5 -5 -6 -7 -4 -3 -2 -4 -2 -1 -2 3 3 10 11 12 12 12 12 11 11 12 12 12 12 13 13 13 13 13 13 14 14 13 13 12 11 12 11
-1 -1 -2 -3 -2 -4 -8 -3 0 -2 -3 -1 -1 -0 -1 -3 -1 3 3 6 9 11 11 12 12 11 11 12 12 12 12 12 13 13 12 12 13 13 13 13 11 12 12 11
1 2 -1 -3 -1 -2 -5 -4 -2 -3 -3 -2 -1 -0 -3 -4 -2 2 3 4 8 11 10 10 12 11 11 11 11 12 11 12 12 13 12 11 13 13 13 13 11 10 11 11
1 2 -2 -4 -5 -4 -4 -6 -7 -4 -3 -2 -2 -3 -3 0 1 2 3 6 8 10 9 10 10 9 10 11 11 11 11 11 12 12 13 10 11 12 12 13 10 10 10 9
-1 2 -1 -2 -4 -6 -6 -7 -4 -4 -1 -1 -1 -0 1 2 3 3 3 3 4 6 8 9 9 10 9 10 11 11 11 11 11 12 13 12 9 11 12 12 10 10 10 12
-1 0 1 -1 -1 -0 -5 -6 -5 -5 -3 -1 -0 -0 -2 2 2 3 2 2 6 4 6 7 8 8 9 11 11 11 11 11 11 12 12 13 10 9 10 11 10 10 12 13
3 1 2 1 -2 -2 -4 -5 -6 -3 -3 -2 -2 1 -3 1 2 2 2 1 4 4 4 6 6 9 10 11 12 11 12 12 12 11 12 13 13 9 10 11 10 12 13 14
1 4 6 4 1 1 3 2 -0 -1 0 1 4 4 -1 -0 1 1 2 2 3 6 4 4 7 8 9 10 11 11 12 12 11 11 12 13 13 12 9 10 11 12 12 13
4 3 4 5 3 4 6 5 4 2 4 4 3 3 2 2 3 2 3 3 1 6 7 6 6 7 8 10 10 10 11 12 12 12 11 12 13 13 10 8 10 11 11 12
-2 -1 2 4 4 1 2 5 5 4 4 4 3 4 3 3 4 5 4 5 5 7 9 9 9 6 7 9 10 10 12 12 12 12 12 12 13 13 12 9 8 9 11 11
-2 -1 0 -1 -1 1 4 -0 -2 1 4 3 3 5 6 7 6 7 7 8 8 7 8 9 10 11 10 9 10 11 11 12 12 12 11 12 12 13 13 10 8 8 9 10
-1 -0 1 1 0 -1 -0 -2 -0 1 7 8 6 9 11 11 11 10 12 11 11 11 8 8 8 8 9 11 11 11 11 11 12 12 13 13 12 12 13 10 10 8 8 9
-1 0 -0 1 -0 3 -2 3 5 10 11 11 11 11 11 10 10 12 12 12 13 12 9 10 10 8 6 9 12 11 11 11 12 13 14 13 13 13 14 12 10 10 10 11
-3 -1 1 2 1 -1 4 4 5 6 6 11 12 11 10 9 9 12 10 10 12 12 10 11 12 12 12 9 10 12 12 11 12 13 13 13 14 9 12 13 13 13 12 13
0 -1 1 2 2 4 6 6 6 5 8 8 11 11 10 10 11 10 9 9 10 11 11 11 10 11 14 15 14 13 13 13 12 13 13 13 13 13 13 13 14 14 14 15
3 3 4 5 6 5 6 6 6 8 8 7 6 7 9 10 9 8 7 6 7 8 9 9 10 10 9 12 15 16 15 14 13 14 14 14 13 14 13 13 14 14 15 15
4 5 5 5 7 7 5 5 7 7 6 5 5 4 5 4 3 4 5 5 5 4 6 9 9 9 9 9 9 11 16 15 15 14 14 14 13 13 13 13 14 15 15 16
5 4 5 5 5 3 3 6 5 5 5 5 6 5 5 5 4 3 3 3 4 5 4 6 9 10 10 9 9 10 10 15 16 16 14 14 14 14 14 14 15 15 15 14
3 3 4 4 3 3 2 2 3 3 5 5 5 6 6 6 5 4 3 2 2 3 4 4 5 5 8 9 12 9 11 9 11 15 15 15 15 15 14 15 15 15 15 15
3 3 4 4 3 3 3 3 4 5 6 6 6 6 6 6 6 5 4 3 2 2 2 4 5 5 4 5 8 11 10 10 10 9 14 14 15 15 16 15 14 15 16 16
4 4 5 5 3 3 3 3 5 6 6 7 7 7 7 7 7 6 6 4 4 3 3 2 4 4 4 4 5 7 8 9 9 10 11 13 14 14 14 14 13 14 15 15

GFSCGP_850_dewp_201.txt.gz
Dewpoint
-1 -0 2 1 -2 -2 -1 -1 0 -1 -2 1 3 4 4 8 13 13 14 14 14 14 13 14 12 12 12 13 14 14 14 14 14 14 14 13 11 12 11 11 11 14 13 13
-0 -0 -1 -2 -2 -2 -2 -1 -1 -1 -1 -1 4 6 6 9 11 12 13 13 13 14 14 14 13 12 12 12 13 13 14 14 14 14 14 14 12 12 12 12 9 12 14 14
-0 -2 -1 -1 -2 -2 -3 -1 -0 -1 -2 0 7 6 8 7 11 12 13 13 13 13 13 14 14 13 12 11 12 13 13 13 14 14 15 14 14 13 13 13 12 12 13 13
-2 -3 -3 -3 -3 -3 -1 -3 -2 -1 -1 -1 2 0 4 3 4 8 9 12 12 13 13 13 14 14 13 12 11 12 13 13 14 14 15 14 14 14 14 14 13 11 13 13
-3 -4 -4 -3 -2 -4 -1 -4 -3 -2 -1 -1 -2 -0 -1 2 0 0 3 9 11 12 12 13 12 11 11 12 12 12 12 13 13 14 14 15 14 14 14 14 13 11 11 12
-4 -5 -4 -3 -3 -4 -3 -2 -4 -3 -4 -1 -3 -2 -2 -2 -1 2 2 6 11 12 12 12 11 11 11 12 12 12 12 12 13 13 13 14 14 14 14 14 13 12 12 10
0 -1 -2 -4 -2 -3 -3 -1 3 2 -1 -2 0 -1 -2 -1 -0 1 4 3 8 12 13 13 11 11 11 11 11 12 12 12 12 13 13 13 14 14 14 14 14 13 12 12
2 2 -1 -2 -0 -1 -2 -2 1 4 1 -1 -0 -0 -4 -2 1 3 7 7 9 11 12 13 12 11 11 11 10 12 11 11 12 12 13 13 12 13 14 14 13 13 12 11
2 2 -1 -2 -3 -3 -2 -2 -5 -2 -3 -1 -2 -1 -4 -1 2 2 4 5 9 10 11 11 12 10 11 11 10 10 12 11 11 12 12 13 12 13 13 13 13 13 12 12
0 3 -1 -2 -3 -5 -2 -5 -2 -2 3 3 0 2 -0 1 4 3 3 3 6 7 9 10 9 9 10 10 10 11 11 11 11 11 12 12 13 11 12 13 13 13 11 10
0 1 2 0 1 1 -3 -3 -4 -3 -2 2 3 1 1 4 4 4 3 3 3 8 7 7 7 9 9 10 10 9 11 11 11 11 12 12 13 12 11 12 12 12 10 10
3 3 5 3 -0 -2 -1 -2 -3 1 4 -1 0 0 -0 2 2 3 3 4 5 7 7 8 7 7 8 9 9 9 11 11 11 11 11 11 12 13 10 10 12 12 10 9
0 4 5 2 1 3 4 4 3 0 -0 4 3 3 1 2 3 4 4 6 7 8 10 6 11 10 7 8 9 10 11 11 11 11 11 12 12 13 12 9 10 11 10 10
3 1 3 2 3 4 5 4 2 3 6 5 3 3 3 4 7 8 7 7 9 10 11 12 11 9 9 10 10 10 10 11 12 11 11 12 12 12 13 11 8 10 10 11
-2 -0 -1 -4 -3 -2 0 -0 -3 -1 2 6 5 6 5 11 10 9 10 10 11 11 11 12 9 12 11 10 11 11 11 10 11 12 11 11 12 12 12 13 9 8 10 11
-2 -1 1 -2 -4 -3 1 -0 -0 -1 -1 -0 0 4 10 10 10 12 12 13 13 13 12 12 11 9 10 11 11 11 11 11 11 11 11 12 12 12 12 13 13 9 8 10
-1 -0 2 0 -0 -0 -0 1 3 2 8 10 4 9 9 9 10 12 11 12 13 13 13 12 12 12 10 8 11 12 11 11 11 12 12 13 12 13 13 13 14 12 9 8
1 2 2 2 2 2 1 4 4 9 11 11 11 10 10 9 9 11 10 11 11 11 12 12 11 11 13 13 11 12 13 12 12 13 13 13 13 13 12 13 14 13 12 9
-2 1 3 3 3 1 2 5 6 7 7 9 11 10 9 8 9 13 8 9 9 9 11 11 11 10 10 13 15 14 13 14 14 14 14 13 13 8 8 8 14 13 12 10
0 1 -1 2 -0 1 6 4 5 6 8 7 6 6 6 6 9 8 7 8 8 7 7 8 9 9 9 9 12 15 15 15 15 15 15 15 14 12 9 12 13 13 13 11
2 2 1 3 4 3 4 3 4 8 8 6 6 6 6 7 6 6 7 7 6 7 5 6 8 9 8 8 9 9 15 16 16 16 16 15 15 15 8 12 8 14 15 14
2 2 1 5 5 3 4 0 3 2 4 5 4 5 6 6 6 6 6 6 6 3 3 4 5 8 10 9 9 10 10 12 17 16 16 16 15 16 16 14 14 13 16 15
3 2 4 4 3 2 2 3 3 3 5 4 5 5 5 6 6 6 6 6 7 7 3 2 4 5 6 9 9 11 10 11 11 17 17 17 16 16 17 17 16 15 15 15
3 3 4 4 3 3 2 3 3 3 3 4 5 5 6 7 7 7 7 7 7 7 7 4 2 3 4 5 5 9 10 8 10 10 13 17 17 16 16 17 17 17 15 15
3 4 5 5 4 4 4 4 5 5 5 5 5 6 7 8 8 8 7 7 7 7 8 7 4 2 3 4 4 4 9 8 8 9 10 13 16 17 16 15 16 15 15 14
4 4 4 5 3 5 5 5 5 5 6 7 6 7 8 9 9 9 8 8 8 8 8 8 7 5 2 2 3 4 5 8 5 8 9 9 12 14 14 13 13 13 12 11

GFSCGP_850_dewp_204.txt.gz
Dewpoint
-1 -0 -1 -2 -1 -3 -2 0 1 -2 -3 0 -2 -0 -2 -1 7 9 11 12 12 12 12 12 13 13 14 15 16 17 17 17 16 16 16 16 15 15 15 14 15 14 16 15
-1 -2 -4 -2 -2 -3 -3 1 0 -2 -2 -2 -2 0 -0 -2 2 6 8 10 11 12 12 12 13 13 13 15 16 17 17 17 15 16 16 16 15 15 15 11 15 14 16 16
-5 -5 -4 -4 -5 -4 -2 0 -1 -1 -2 -4 -0 -3 -0 -0 4 6 9 9 10 11 12 13 13 13 13 14 16 17 16 17 14 17 16 16 16 14 12 14 15 14 13 15
-4 -7 -4 -4 -5 -4 -1 -3 -3 -1 -1 -0 -4 -0 1 -1 -0 0 2 6 9 10 11 12 13 13 13 14 15 16 13 14 14 15 17 16 16 15 14 14 15 14 10 12
-3 -5 -4 -4 -5 -4 -3 -3 -2 -1 -1 -3 -4 -3 2 -1 -2 -1 1 0 5 9 10 12 13 13 13 14 15 14 12 13 13 14 16 17 16 15 15 15 16 15 14 11
-2 -4 -4 -3 -4 -4 -3 -3 -2 -1 -1 0 -4 -4 -0 -2 0 1 3 2 6 8 9 11 12 13 13 13 15 12 11 12 13 13 13 14 16 14 16 16 16 14 15 15
-1 -2 -3 -3 -2 -4 -2 -3 2 3 0 -0 -3 -3 -4 -3 -1 2 4 3 5 9 9 11 12 12 13 14 15 15 13 11 12 13 13 13 14 14 16 16 16 14 15 14
1 2 -1 -2 -2 -1 -1 -1 1 5 2 1 -1 -0 -1 -5 -1 2 3 6 6 8 9 10 11 12 13 14 15 15 14 11 11 12 13 13 13 16 16 16 15 15 15 14
1 1 -3 -3 -3 -2 -0 0 -4 -1 -2 0 -2 -2 -4 -4 -2 -1 1 3 6 9 9 10 11 12 13 14 15 15 16 14 12 12 12 13 13 14 16 16 16 16 15 14
1 3 -1 -2 -3 -3 -1 -3 -0 -2 3 5 1 1 -0 -2 -1 -1 0 2 3 7 9 10 10 11 12 13 14 15 16 14 12 13 12 13 12 13 16 16 16 16 16 15
1 2 1 1 -0 0 -0 0 -1 -1 -0 3 3 1 -2 -2 1 3 2 4 5 7 9 8 11 11 12 13 14 14 15 16 16 16 16 16 13 13 13 15 16 16 16 16
2 1 4 2 0 -0 0 1 0 2 4 3 3 2 -2 -2 2 3 5 7 8 10 11 9 9 12 12 13 14 14 15 15 15 16 16 15 16 15 16 15 16 16 16 16
-1 -0 2 0 -2 1 1 2 3 2 2 4 4 2 2 3 4 6 8 9 9 10 11 12 11 12 13 14 14 15 15 15 15 16 16 16 16 14 16 16 15 15 15 13
-0 -5 -3 -2 -3 -2 2 1 3 3 4 3 2 2 1 6 9 7 9 11 11 11 11 13 13 14 14 14 15 15 16 16 16 16 16 16 15 14 14 16 14 15 12 13
-3 -1 -3 -3 -5 -7 -6 -7 -7 -4 -3 1 1 3 3 8 9 10 11 12 12 12 12 12 13 14 14 15 16 16 16 17 16 17 17 16 13 13 14 14 13 12 12 13
-4 -1 -2 -2 -7 -7 -6 -8 -9 -8 -7 -7 -6 -2 -1 7 9 12 11 12 12 12 12 13 13 14 15 15 15 16 17 17 17 17 17 16 14 13 12 12 12 13 10 9
-2 -3 -0 -1 -2 -2 -3 -2 -2 0 -0 6 5 9 9 9 9 11 11 11 11 11 12 12 13 13 14 14 16 16 16 17 17 17 17 17 17 12 12 12 13 13 13 10
0 2 1 1 -0 1 2 2 3 3 7 8 8 9 9 8 7 10 8 8 9 9 10 11 11 12 13 13 14 17 16 16 17 17 18 17 17 16 15 13 12 12 14 13
-1 2 0 2 -2 -3 -4 2 4 5 4 6 7 7 6 6 6 10 9 7 7 8 8 8 10 11 12 13 13 14 17 16 17 17 18 18 17 17 16 12 12 11 12 13
-1 1 1 -2 0 -2 5 3 2 3 4 5 4 4 4 4 6 7 7 7 7 6 7 7 8 9 11 13 13 14 15 17 17 17 17 17 17 17 15 13 10 13 13 12
2 1 -2 -5 -4 -4 4 2 0 5 5 4 3 3 4 4 4 4 4 5 6 6 7 7 7 7 9 11 14 14 15 15 17 17 17 18 18 17 14 11 14 14 10 14
1 -1 -4 0 2 1 2 1 3 3 2 3 4 5 5 5 5 5 6 6 5 5 6 7 7 6 7 10 11 13 14 13 12 16 17 17 17 17 17 12 15 15 15 16
-1 -1 2 2 1 2 3 3 3 3 3 4 4 4 5 5 5 5 5 6 7 6 6 6 7 7 7 8 10 10 12 12 10 11 17 17 17 17 17 17 17 15 13 12
0 2 4 4 3 3 3 4 4 4 4 5 5 6 6 6 6 6 7 7 8 8 7 7 7 7 8 7 8 9 7 8 11 10 12 17 17 17 17 17 17 17 15 14
1 3 4 5 4 4 3 4 4 5 5 5 6 7 8 8 7 7 7 8 9 8 8 8 8 8 8 8 6 5 4 5 12 13 14 11 16 15 17 17 18 17 17 16
1 3 4 5 3 5 4 4 5 6 7 7 7 8 8 9 9 9 9 9 9 9 9 8 9 9 9 9 8 6 3 3 5 13 12 14 10 13 14 14 14 14 14 14

GFSCGP_850_dewp_207.txt.gz
Dewpoint
-4 -3 -2 -3 -1 -1 -3 -1 0 -1 -3 -2 -1 -2 -3 -4 0 5 7 9 10 11 11 11 12 12 12 13 15 15 16 17 16 16 16 15 15 15 16 15 16 16 16 16
-3 -3 -5 -5 -3 -3 -3 -2 -0 -3 -3 -3 -2 -2 -3 -3 -3 0 5 7 9 10 10 11 12 12 13 13 14 16 16 17 16 17 16 15 15 14 16 15 15 16 15 17
-4 -6 -7 -6 -4 -5 -6 -3 -1 -2 -3 -3 -2 -1 -1 -2 -1 -0 2 4 7 9 10 11 12 12 13 13 14 16 17 17 16 17 16 16 16 15 15 15 15 16 16 15
-8 -9 -8 -7 -7 -8 -5 -4 -3 -2 -1 0 -4 -1 3 -1 -1 -1 -1 3 5 8 10 10 11 12 12 13 15 16 17 17 17 16 16 16 15 15 15 15 14 15 16 16
-4 -7 -6 -5 -6 -8 -5 -3 -3 -2 -1 -1 -3 -4 2 -1 -1 -1 -0 -1 3 7 8 10 12 12 12 13 14 16 17 17 17 17 16 16 16 16 15 14 14 15 15 16
-5 -7 -6 -5 -6 -6 -6 -4 -2 -2 -1 1 -3 -6 1 0 -0 1 2 0 2 5 7 9 11 12 12 13 14 15 17 17 17 16 15 16 16 15 16 15 15 16 16 16
-1 -3 -5 -6 -4 -5 -4 -3 1 3 2 -0 -3 -4 -3 -2 -2 -1 2 2 3 5 6 9 11 12 12 12 13 15 17 18 18 18 17 17 17 17 16 15 15 16 16 15
-0 2 -3 -4 -3 -2 -2 -3 1 4 2 2 -1 -1 -1 -5 -3 -2 2 3 3 5 5 8 10 11 12 12 13 15 17 17 17 17 17 17 17 17 16 16 16 16 16 15
1 0 -4 -5 -4 -3 -1 0 -4 -2 -4 -1 -3 -2 -4 -5 -3 -2 -1 2 6 6 6 7 9 10 11 12 13 16 16 17 18 17 18 18 17 17 16 16 16 16 15 14
0 2 -2 -3 -4 -4 -3 -4 0 -1 3 5 2 3 -1 -1 -2 -2 -0 2 3 6 7 7 8 10 11 12 13 15 16 17 17 17 18 18 18 17 17 16 16 15 16 15
-0 1 0 -1 -1 -1 -1 1 -1 -2 -1 2 2 2 1 0 1 2 3 5 7 8 9 8 8 9 10 11 12 14 15 16 17 17 17 17 18 18 18 16 16 17 16 16
0 1 1 -0 -3 -2 -1 1 -1 1 3 1 3 5 -1 -1 3 5 7 8 9 10 11 11 8 10 11 12 13 13 14 15 17 16 17 17 17 17 17 17 16 16 16 16
-1 -1 -1 -3 -5 -4 -1 -0 -1 -0 -1 2 2 0 2 4 5 6 8 10 10 11 11 12 13 12 12 13 13 14 15 15 15 16 17 17 17 17 17 17 17 16 16 16
-4 -6 -4 -4 -4 -5 -3 -2 0 -1 1 1 -0 -1 0 7 8 7 9 11 11 12 12 12 14 15 16 15 15 15 15 15 15 16 16 16 17 17 17 17 17 16 14 14
-4 -3 -3 -5 -6 -6 -7 -8 -9 -7 -7 -5 -5 -5 -4 -3 7 9 10 11 11 12 12 13 13 14 15 16 16 17 16 16 16 16 16 16 17 17 17 16 16 16 15 12
-4 -1 -3 -3 -5 -6 -7 -7 -8 -10 -10 -9 -8 -6 3 4 7 9 10 11 11 11 12 12 12 13 14 15 16 16 17 18 18 17 17 17 17 17 17 17 16 15 15 13
-2 -2 -1 -0 -4 -3 -1 -2 -3 -4 -3 0 2 8 8 8 8 9 9 9 9 9 10 10 11 12 13 13 14 15 17 16 17 18 18 18 17 17 17 17 17 16 15 14
-3 1 1 1 0 2 -0 -1 -1 -1 -2 -2 4 4 6 6 6 6 8 7 7 8 8 8 9 10 11 13 14 14 16 16 16 17 17 18 18 18 17 17 17 17 15 15
-5 -1 1 1 0 -3 -6 3 2 3 1 -1 5 4 4 3 3 3 10 9 7 7 7 7 7 8 9 12 14 14 15 17 13 7 12 17 18 18 18 18 17 17 17 17
-4 -2 1 -1 1 1 2 1 -1 -1 -0 4 4 4 4 4 5 4 4 5 5 5 5 6 7 7 7 9 11 13 14 15 16 12 11 16 18 17 18 18 17 17 17 17
3 3 2 -1 -2 -4 2 0 -2 -1 3 3 2 3 4 4 4 4 4 5 5 5 6 6 6 6 7 7 9 12 13 14 15 16 16 17 17 17 17 17 17 17 18 18
2 0 -2 -3 -1 2 2 2 3 3 2 2 3 4 4 4 4 4 5 5 5 5 6 6 6 6 6 8 8 10 12 13 15 15 16 17 17 17 17 17 18 18 17 17
2 -2 1 1 1 -0 1 3 2 3 4 4 4 4 5 5 5 6 6 6 6 7 7 7 7 7 7 7 8 9 10 12 12 14 15 15 16 18 17 17 17 17 17 17
-0 -1 2 3 2 2 3 3 4 4 4 5 5 5 6 6 6 7 7 7 7 7 7 8 8 8 8 8 8 9 9 10 11 12 14 15 16 17 17 17 17 18 16 16
-0 -0 2 3 2 3 4 4 4 4 4 6 7 7 7 7 7 7 8 8 8 8 8 9 9 9 9 8 9 9 9 10 10 11 12 14 14 15 16 17 17 17 17 16
-0 1 3 3 2 4 4 4 4 4 5 6 7 7 8 8 8 8 8 9 9 9 10 10 10 10 10 9 9 9 10 10 10 10 10 11 12 13 11 15 15 13 14 16

GFSCGP_850_dewp_210.txt.gz
Dewpoint
-7 -5 -2 -3 -2 -1 -0 -2 -2 -1 -3 -2 -1 -2 -4 -4 1 3 5 8 10 10 11 12 12 11 13 13 13 14 14 15 15 16 15 15 15 15 15 14 14 15 13 15
-5 -2 -6 -5 -5 -3 -4 -4 -2 -2 -3 -3 -2 -1 -3 -4 -4 0 4 5 8 10 10 11 12 12 12 14 14 14 15 15 16 15 14 15 15 16 14 14 16 16 14 15
-4 -5 -7 -7 -6 -4 -6 -7 -4 -1 -3 -4 -1 1 -1 -2 -2 -1 -1 4 5 9 10 11 12 12 12 14 15 15 15 15 16 16 14 15 15 15 15 15 14 13 13 15
-6 -8 -9 -8 -8 -9 -7 -5 -4 -2 -2 1 -3 2 4 -1 -1 -1 -1 1 3 6 9 11 12 12 12 13 14 15 16 16 16 15 16 15 16 15 15 15 15 16 14 15
-6 -8 -8 -8 -7 -8 -7 -6 -3 -3 -2 -1 -1 0 5 -0 0 -1 -0 -1 2 5 7 10 11 12 12 13 14 15 15 16 16 15 16 17 14 14 15 15 15 13 15 14
-7 -7 -8 -8 -7 -7 -7 -5 -4 -2 -1 3 -1 -5 3 1 -0 -0 -0 -2 1 4 6 8 11 11 12 12 14 15 15 16 16 16 14 17 16 13 15 16 15 14 16 15
-3 -4 -7 -7 -5 -6 -6 -4 1 4 5 6 -2 -2 2 -1 -2 -1 0 -0 1 2 4 7 10 11 12 12 13 14 15 15 15 16 15 14 16 16 13 14 15 15 15 16
-1 2 -2 -5 -4 -3 -2 -3 -0 6 5 5 2 -0 -1 -4 -3 -2 0 1 2 3 4 7 9 11 12 12 13 14 15 15 16 15 14 14 15 16 16 14 14 15 15 15
2 1 -4 -5 -6 -4 -1 -0 -3 -0 -4 -2 0 5 -2 -5 -4 -2 0 4 4 4 5 6 9 10 12 12 13 14 15 15 15 15 16 15 15 16 16 16 15 15 15 17
0 3 -1 -4 -4 -4 -4 -4 -0 -1 5 5 3 7 8 3 4 2 2 3 5 7 8 7 8 9 10 12 12 14 15 16 16 17 18 16 14 16 16 16 15 14 16 16
-1 -0 1 -1 -1 -0 -1 -1 -0 -0 2 5 2 7 3 3 4 4 5 7 9 9 10 10 8 8 10 11 12 13 15 16 17 17 18 18 17 15 16 16 16 15 16 16
-3 0 3 0 -4 -4 -2 -0 -0 2 3 -0 2 4 2 8 7 8 9 9 11 11 12 13 14 12 10 10 11 12 15 16 17 17 17 17 18 17 17 15 17 16 15 15
-1 -0 -1 -3 -5 -6 -4 -3 -2 -0 -1 3 2 3 4 4 6 7 10 10 12 12 13 13 15 16 15 13 13 13 13 15 16 16 17 17 18 17 17 17 16 16 15 15
-2 -5 -5 -4 -4 -5 -4 -4 -4 -2 -0 -2 -2 -3 7 2 5 6 11 11 12 12 13 13 14 15 16 16 15 15 16 14 15 16 16 17 17 18 18 18 17 16 15 13
-5 -4 -4 -5 -5 -6 -7 -7 -8 -8 -8 -6 -7 -7 -5 7 8 9 10 11 11 12 12 12 13 14 15 15 16 17 16 16 16 15 16 16 17 17 17 17 17 17 16 14
-4 -1 -2 -1 -4 -5 -5 -6 -7 -7 -8 -8 -9 -6 7 7 8 9 9 9 10 10 10 11 12 12 14 14 14 15 17 17 17 17 16 17 17 17 17 17 17 17 16 16
-3 -2 0 1 -3 -3 -1 -3 -2 -2 -4 -3 2 8 6 7 6 6 6 8 9 8 9 9 9 10 11 13 13 14 15 16 17 16 16 17 17 17 17 17 17 17 17 16
-4 -1 -0 2 1 3 -2 -3 -1 -1 -3 -3 -0 3 3 4 3 3 3 8 8 7 8 8 8 8 8 10 12 14 14 15 16 16 17 16 17 17 17 17 17 17 18 17
-4 -3 -0 2 1 -1 -5 2 2 2 3 1 2 3 3 2 2 2 8 7 5 6 6 6 6 7 8 8 9 11 13 14 15 16 16 17 16 17 15 17 17 17 17 18
-3 -3 0 1 2 2 3 1 -1 -2 0 2 3 3 3 3 4 2 5 3 4 4 5 5 6 6 6 7 8 8 11 13 14 15 16 16 12 8 9 12 16 17 17 18
3 4 3 2 2 -1 2 1 -1 2 4 2 2 3 3 4 3 3 3 5 5 5 5 5 6 6 7 7 6 8 8 11 13 14 16 14 16 11 8 6 8 12 17 17
1 3 2 -1 0 1 2 3 4 4 2 3 3 4 4 5 5 5 5 5 6 6 7 7 6 7 7 7 8 7 8 9 11 12 10 13 14 16 16 13 8 14 17 17
3 0 1 1 2 1 -0 1 2 3 4 3 4 4 5 6 5 6 6 6 6 7 7 8 8 8 8 8 10 9 8 8 10 10 11 11 12 14 13 17 17 17 17 17
0 -0 1 2 1 1 1 1 4 5 5 5 4 4 5 6 7 7 8 8 7 8 8 8 8 9 9 9 8 9 10 9 8 10 11 11 11 14 15 15 17 17 17 17
-0 0 1 2 1 1 2 3 4 5 5 4 5 6 6 7 7 7 8 8 8 9 9 9 9 9 9 10 10 9 10 9 10 10 11 11 11 12 13 15 16 17 17 17
-1 3 3 3 2 5 4 4 4 4 5 5 5 6 7 8 8 7 8 7 8 9 9 10 10 10 10 10 10 9 10 10 9 10 10 11 10 10 13 14 13 13 16 16

GFSCGP_850_dewp_216.txt.gz
Dewpoint
-5 -4 -3 -4 -4 -3 -1 -1 -2 -2 2 -1 -0 -1 6 8 7 10 11 12 11 12 12 12 13 13 13 14 15 14 14 14 15 15 15 14 13 15 14 15 15 15 16 13
-3 -3 -5 -6 -5 -3 -3 -4 -4 -3 -0 -2 -0 1 1 7 7 8 10 11 11 11 11 12 12 13 13 13 14 14 14 14 15 14 15 14 14 14 14 15 14 15 15 11
-2 -3 -5 -5 -5 -6 -6 -5 -4 -4 -3 -3 -1 2 5 4 7 6 10 11 11 11 11 11 11 12 13 14 14 14 13 14 14 14 15 15 14 14 14 15 15 14 14 14
-3 -4 -5 -6 -8 -7 -6 -8 -4 -1 -0 1 -1 3 2 1 2 6 8 11 11 11 11 11 11 11 11 11 12 13 13 13 14 14 15 14 14 14 14 15 14 14 15 14
-2 -4 -6 -7 -8 -9 -7 -8 -4 -1 3 2 1 2 2 3 1 2 4 10 11 11 11 11 11 11 11 11 12 12 13 13 13 14 14 15 15 13 14 15 15 14 15 14
-3 -5 -8 -8 -9 -9 -7 -5 -2 6 7 7 4 4 5 4 2 2 1 2 10 11 11 11 11 11 11 12 12 12 13 13 14 14 14 15 15 13 15 15 15 14 14 14
-2 -3 -8 -8 -6 -6 -5 -3 1 7 10 9 7 5 4 2 1 7 12 10 10 11 11 11 12 12 12 12 12 13 13 13 14 14 15 14 14 13 14 15 15 14 15 15
1 4 -5 -8 -6 -5 -3 -3 1 4 10 7 5 5 5 10 11 12 11 11 13 13 12 13 12 12 12 12 12 12 13 13 14 14 14 13 14 13 15 15 15 14 14 14
3 2 -1 -6 -6 -5 -3 -0 -2 0 3 5 7 6 3 8 11 11 11 11 12 14 13 13 15 12 12 12 12 12 13 13 14 14 14 12 11 11 11 14 14 13 15 15
-1 1 -1 0 -5 -4 -3 -3 1 1 4 7 9 8 6 11 13 12 11 9 11 12 15 15 16 11 12 13 14 14 14 14 14 14 14 14 12 10 11 12 14 13 13 14
-1 -0 -0 -0 0 -0 -2 -1 -1 3 4 7 10 10 8 12 14 13 11 8 10 14 15 14 13 16 11 12 14 13 12 14 15 15 15 16 15 14 12 12 13 13 15 14
-1 -0 0 -1 -3 -6 -5 -3 1 5 5 3 6 9 7 11 12 15 15 12 14 14 14 14 12 13 15 15 15 17 8 17 16 15 13 16 16 16 16 14 12 13 14 14
-1 -1 -1 -2 -4 -4 -3 -5 -7 -2 2 0 10 11 8 12 15 15 14 12 10 10 12 12 12 13 13 13 15 15 12 12 11 9 5 14 17 16 16 16 14 13 14 14
-2 -3 -3 -2 -3 -2 -2 -3 -5 -6 -3 -3 4 13 13 14 14 12 11 9 10 11 11 10 10 11 12 13 14 15 15 14 11 8 6 10 15 16 16 16 15 15 14 14
-6 -3 -0 -1 -1 -2 -2 -2 -3 -4 -6 -6 5 14 12 11 13 13 12 11 10 10 9 9 9 8 8 9 11 11 11 14 14 16 16 14 14 16 16 16 16 16 16 16
-3 -0 -0 -0 -0 1 1 -1 -1 -2 3 10 11 11 9 7 8 8 10 10 9 9 8 7 7 7 7 8 7 6 7 8 9 14 15 16 17 18 17 16 16 16 16 16
-2 -1 0 1 1 2 1 3 1 3 3 8 10 8 5 5 3 7 9 8 8 8 8 7 6 6 6 6 6 6 6 6 7 7 12 15 15 16 16 17 16 16 16 16
-2 1 1 1 1 4 1 0 4 5 5 5 6 5 4 3 3 7 5 4 4 4 4 4 5 6 6 6 5 5 6 6 6 5 7 8 13 15 15 15 16 16 16 16
-4 1 2 2 4 1 3 2 1 3 5 3 4 4 4 4 6 6 6 5 6 6 6 6 6 6 7 7 7 7 7 6 6 6 6 7 7 8 13 14 14 14 15 16
1 -1 -0 3 3 4 4 3 2 -1 7 4 5 6 6 5 7 6 5 5 5 5 5 6 6 7 6 6 6 7 8 8 7 7 6 8 8 7 7 8 9 12 14 12
4 4 2 4 4 6 4 2 2 3 4 5 4 4 4 5 5 5 4 4 4 6 6 6 6 5 7 7 7 7 7 7 7 7 8 9 9 9 8 7 7 9 14 15
2 6 6 3 5 6 3 2 4 5 6 5 5 5 5 5 5 5 5 5 6 6 6 6 6 6 8 8 7 8 8 7 8 9 8 8 9 10 10 8 8 7 10 14
4 2 3 2 4 2 3 4 5 4 5 5 4 4 5 5 4 6 6 6 6 7 6 6 7 8 8 9 8 7 7 7 7 8 8 8 7 8 10 9 9 9 7 11
3 1 3 2 3 5 5 4 4 4 4 4 4 5 5 4 6 6 5 6 7 7 7 7 7 8 8 7 8 8 8 7 8 9 8 9 8 8 8 8 9 9 9 10
2 1 3 5 6 5 5 5 4 4 4 4 5 5 6 6 6 7 7 7 7 7 8 8 8 8 8 8 8 8 7 8 8 8 9 9 9 8 9 9 10 10 9 11
3 3 5 8 5 5 5 4 4 4 5 6 6 7 7 8 8 8 8 8 8 8 8 8 9 9 8 7 7 6 6 8 9 8 9 9 9 8 9 9 9 10 9 11